Location: Montreal
(45.5000°N, 73.5830°W)
Time: 17:11:33
(UTC-05:00)

Tiangong 2 - Visible Passes

Search period start: 19 February 2018 00:00
Search period end: 01 March 2018 00:00
Orbit: 384 x 388 km, 42.8° (Epoch: 19 February)

Date Brightness Start Highest point End Pass type
(mag) Time Alt. Az. Time Alt. Az. Time Alt. Az.
19 Feb 2.9 19:22:46 10° WSW 19:25:22 24° SSW 19:25:22 24° SSW visible
20 Feb 2.5 18:23:41 10° W 18:26:36 33° SSW 18:29:24 11° SE visible
21 Feb 3.6 19:01:58 10° WSW 19:04:03 16° SSW 19:05:47 11° S visible
22 Feb 3.2 18:02:39 10° WSW 18:05:16 24° SSW 18:07:53 10° SSE visible
23 Feb 4.3 18:42:18 10° SW 18:42:36 10° SSW 18:42:54 10° SSW visible
